Flag for U.S.A. Weather past 2 weeks in Anderson, South Carolina, U.S.A.

Now
73 °F

Sunny.


Feels Like: 76 °F
Forecast: 65 / 84 °F
Wind: 5 mph from East

Location: Anderson County Airport

Current Time: Jul 29, 2014 at 9:31:33 AM

Latest Report: Jul 29, 2014 at 8:56 AM


Visibility: 10 mi

Pressure: 29.96 "Hg

Humidity: 64%

Dew point: 60 °F

Location of AndersonLocation

Historic Weather in Anderson — Graph

°F

Anderson temperature yesterday

Maximum temperature yesterday: 91 °F (at 3:56 PM)
Minimum temperature yesterday: 70 °F (at 11:56 PM)
Average temperature yesterday: 82 °F

Past Weeks' High & Low Weather Summary

 TemperatureHumidityPressure
High93 °F (Jul 14, 12:56 PM)97% (Jul 19, 6:56 AM)30.15 "Hg (Jul 19, 6:56 AM)
Low62 °F (Jul 29, 6:56 AM)33% (Jul 28, 5:56 PM)29.76 "Hg (Jul 15, 4:56 PM)
Average78 °F73%29.98 "Hg
* Reported Jul 14 7:56 AM — Jul 29 7:56 AM, Anderson, Weather by CustomWeather, © 2014

Note: Actual official high and low records may vary slightly from our data, if they occured in-between our weather recording intervals... More about our weather records

Advertising

Anderson weather history for previous 24 hours

 ConditionsComfort  
Time TempWeatherWind HumidityBarometerVisibility
7:56 AM
Jul 29
67 °FSunny.No wind85%29.95 "Hg10 mi
6:56 AM62 °FClear.No wind90%29.94 "Hg10 mi
5:56 AM63 °FClear.No wind90%29.92 "Hg10 mi
4:56 AM63 °FClear.No wind90%29.90 "Hg10 mi
3:56 AM65 °FClear.3 mph85%29.89 "Hg10 mi
2:56 AM65 °FClear.3 mph85%29.90 "Hg10 mi
1:56 AM65 °FClear.No wind85%29.90 "Hg10 mi
12:56 AM69 °FClear.No wind70%29.91 "Hg10 mi
11:56 PM
Jul 28
70 °FClear.No wind68%29.90 "Hg10 mi
10:56 PM72 °FClear.No wind61%29.90 "Hg10 mi
9:56 PM77 °FClear.7 mph50%29.88 "Hg10 mi
8:56 PM78 °FSunny.5 mph46%29.87 "Hg10 mi
7:56 PM83 °FSunny.10 mph38%29.85 "Hg10 mi
6:56 PM86 °FScattered clouds.17 mph37%29.84 "Hg10 mi
5:56 PM88 °FSunny.14 mph33%29.83 "Hg10 mi
4:56 PM89 °FSunny.17 mph36%29.82 "Hg10 mi
3:56 PM91 °FSunny.17 mph36%29.83 "Hg10 mi
2:56 PM90 °FSunny.20 mph38%29.83 "Hg10 mi
1:56 PM90 °FSunny.15 mph41%29.83 "Hg10 mi
12:56 PM89 °FSunny.12 mph46%29.85 "Hg10 mi
11:56 AM87 °FSunny.14 mph53%29.85 "Hg10 mi
10:56 AM85 °FSunny.15 mph57%29.85 "Hg10 mi
9:56 AM83 °FSunny.12 mph61%29.85 "Hg10 mi
Weather by CustomWeather, © 2014

See weather overviewHow to use our weather pages